シューメーカー-レヴィ第5彗星

145P/Shoemaker-Levy 5 (2000)

English version
Home page
Updated on November 1, 2009

---------------------------------------------------------------------

・ プロフィール

符号 145P/2000 R1
検出日 2000年9月6日
検出光度 18.5等
検出者 Lincoln Laboratory Near-Earth Asteroid Research project

・ 軌道要素

                    Epoch = 2000 Aug.  4.0 TT
     T = 2000 Aug. 17.0846 TT         Peri. =   6.2331
     e = 0.529360                     Node  =  29.6904  2000.0
     q = 1.988623 AU                  Incl. =  11.7706
       a =  4.225360 AU    n = 0.1134772    P =   8.686 years

・ 星図

・ 光度変化

        m1 = 10.5 + 5 logΔ + 15.0 log r

---------------------------------------------------------------------

軌道要素は Dr. Green の計算によるもので、 IAUC 7488 に掲載されたものです。
星図は StellaNavigator Ver.2.0 for Windows (アストロアーツ 編著 / アスキー出版局刊) で作成したものです。
光度グラフはComet for Windowsで作成したものです。

---------------------------------------------------------------------

Copyright(C) Seiichi Yoshida (comet@aerith.net). All rights reserved.